Wind_Speed
21 22 22 23 24 25 25 24 24 24 24 25 25 25 24 24 24 24 22 22 21 21 21 21 21 20 20 20 20 19 19 18 18 17 16 15 15 15 15 15 14 13 12 12 11 11 10 10 9
22 23 24 25 26 27 26 25 25 25 26 26 27 27 26 25 26 25 24 24 23 22 22 22 22 22 22 21 21 21 21 21 20 19 18 18 17 17 17 16 16 15 15 14 13 13 12 11 11
24 24 25 26 27 28 27 26 26 26 27 27 27 28 27 27 27 26 26 26 25 24 24 24 24 24 24 23 23 23 23 22 21 21 20 20 19 19 19 18 17 16 16 16 15 14 14 13 13
25 25 27 28 28 28 28 27 27 27 29 29 29 29 29 29 28 28 28 28 27 26 26 26 26 25 25 25 25 25 24 24 24 23 23 22 21 21 20 20 19 18 18 18 17 17 16 16 15
26 26 27 28 28 27 28 28 29 29 30 29 30 30 30 30 30 30 30 30 29 28 28 28 27 27 27 27 27 26 26 26 26 25 25 24 24 23 22 22 21 20 20 20 20 19 18 18 17
26 26 27 28 27 27 27 28 29 30 31 31 31 31 31 31 31 32 32 32 32 31 30 30 29 29 29 29 29 28 27 28 28 28 27 26 25 25 24 24 23 22 21 21 21 21 20 19 19
26 26 27 27 28 28 28 28 29 30 31 31 32 33 32 32 32 33 33 34 33 33 33 33 32 31 31 31 31 30 29 29 30 30 29 28 27 26 26 25 25 24 23 23 22 22 22 21 21
25 27 27 28 29 28 28 29 30 30 31 31 32 33 33 33 33 33 34 34 35 34 34 34 34 33 33 33 32 32 32 31 31 31 31 31 29 29 28 27 26 26 25 25 23 24 23 22 22
26 27 28 28 30 30 30 30 31 31 30 31 32 33 34 34 34 34 35 35 36 36 35 35 35 35 35 35 34 33 34 33 32 32 33 33 32 31 30 28 28 27 27 27 26 25 25 24 24
27 28 28 29 31 31 31 31 31 32 31 32 33 34 34 34 35 35 36 36 36 36 36 36 36 36 37 36 36 35 35 35 34 33 34 35 34 34 32 31 30 29 29 29 29 28 27 26 26
28 29 29 30 31 32 32 33 33 34 34 34 34 34 35 35 35 36 36 37 38 37 37 38 37 37 37 37 37 37 37 36 36 36 35 35 36 35 34 33 32 32 31 30 30 30 29 28 28
29 30 31 31 32 33 34 34 35 36 36 36 36 36 36 36 36 37 37 38 38 39 39 39 39 38 38 38 38 38 37 36 37 37 37 37 36 36 36 35 34 33 33 32 32 32 31 30 30
30 31 32 33 34 35 35 36 37 37 37 37 37 37 37 37 37 38 38 39 39 40 40 39 39 39 39 39 39 39 38 38 38 38 38 38 37 37 37 37 37 36 36 35 33 33 33 32 32
31 32 33 34 35 36 37 38 39 39 39 38 38 38 38 38 38 38 39 40 40 40 40 41 40 40 41 41 40 40 40 40 40 39 40 40 39 38 38 39 38 38 37 37 36 35 35 35 33
31 32 33 34 35 36 38 38 39 39 39 39 38 39 39 38 39 39 39 40 40 41 41 41 42 42 42 42 42 41 40 41 41 40 40 41 41 40 39 40 40 40 39 38 38 37 37 37 36
30 32 33 34 36 37 38 39 39 39 38 39 39 39 39 39 39 39 39 40 41 41 41 42 42 42 42 43 43 43 41 41 41 41 40 41 42 41 41 40 41 41 40 40 39 38 38 39 38
29 32 33 34 36 38 39 39 39 39 39 39 39 40 40 40 40 40 41 41 41 41 41 42 42 43 43 43 44 43 43 42 42 41 41 41 42 43 42 41 42 42 41 42 41 40 39 40 39
31 32 33 34 35 37 38 38 39 39 39 39 40 40 40 41 41 41 42 42 42 42 42 42 43 43 44 44 44 45 45 44 44 43 43 43 43 43 44 44 43 43 43 43 42 41 40 41 41
32 33 34 35 36 37 37 37 38 39 38 39 40 41 42 42 42 43 43 43 43 43 43 43 44 44 45 45 46 46 46 46 45 44 44 44 44 43 44 45 45 45 44 44 44 44 42 42 42
34 35 36 36 36 37 36 36 37 38 39 39 39 40 41 42 43 44 44 44 44 44 44 44 44 44 46 46 47 47 47 47 47 47 47 46 46 46 45 45 45 46 46 45 45 46 44 44 43
34 36 36 37 36 36 37 35 34 35 37 38 39 40 41 42 43 44 45 45 45 45 45 45 45 46 46 47 48 48 49 48 48 48 48 48 48 47 48 46 45 46 47 46 46 47 46 45 45
35 35 36 36 36 35 36 36 33 34 35 36 38 40 41 42 43 43 44 45 45 46 46 46 47 47 47 47 49 50 50 50 49 49 49 49 49 49 49 49 47 47 47 48 48 47 47 47 47
34 34 35 36 36 37 35 38 35 34 35 36 37 39 40 41 42 43 43 44 45 45 46 47 48 49 48 49 50 50 51 51 51 51 51 51 52 51 50 50 49 48 49 49 48 48 48 48 48
35 35 35 36 37 37 36 38 37 35 35 36 37 38 39 40 41 41 42 44 44 45 46 47 49 50 50 51 51 51 52 52 52 52 53 53 54 53 52 52 51 50 50 51 51 50 50 50 50
35 35 36 36 37 37 36 37 37 36 36 37 38 39 40 40 40 41 42 43 44 45 46 47 48 49 50 51 52 53 53 54 53 53 53 54 55 55 54 54 54 53 52 52 53 53 52 52 52
34 35 35 37 37 37 37 38 37 37 36 36 38 39 39 40 40 41 42 43 44 45 46 47 48 49 49 51 52 53 54 55 55 55 54 54 55 57 57 57 56 55 55 54 54 55 54 53 53
35 35 35 37 38 38 38 38 38 37 37 37 38 39 40 40 40 41 42 42 43 44 45 46 47 48 49 50 51 52 54 55 55 56 55 54 55 56 57 57 57 57 56 56 56 56 56 56 55
36 36 36 37 39 40 39 38 38 38 38 38 38 39 39 40 41 41 42 42 42 43 44 45 45 46 48 49 50 51 52 54 55 56 56 55 55 55 56 57 57 57 57 57 57 56 55 56 55
36 36 37 38 39 40 41 40 39 39 40 40 40 39 39 38 39 40 40 41 41 42 43 44 45 45 46 48 49 50 51 53 55 56 56 56 57 57 57 58 57 57 58 59 58 58 59 58 57
37 37 37 38 39 40 42 43 40 40 40 41 41 41 40 40 39 39 40 41 41 41 42 43 43 44 45 46 47 48 48 51 53 55 56 57 57 57 57 58 59 58 58 60 61 60 60 59 59
Wind_Direction
255 255 254 254 254 253 253 252 252 252 252 253 255 255 256 256 255 254 253 252 252 251 250 249 249 248 248 247 246 245 244 244 242 241 242 242 244 246 246 246 245 246 248 248 248 248 247 243 239
257 256 255 255 255 255 255 256 255 256 256 256 257 257 257 257 257 256 253 251 251 251 250 249 248 248 248 248 248 247 245 245 244 243 243 243 244 246 247 248 248 248 248 248 248 248 246 244 241
258 257 256 257 257 258 260 259 258 258 259 258 259 259 258 256 256 256 254 250 250 249 249 249 249 249 249 249 249 249 247 246 246 246 245 244 245 246 246 247 249 248 248 249 249 248 246 245 244
258 258 258 259 259 260 262 260 258 257 258 258 258 259 259 258 256 256 255 252 251 250 249 249 249 249 249 249 250 249 248 247 246 246 246 245 245 245 246 246 247 249 249 250 251 251 249 246 246
259 259 259 260 261 261 261 260 260 259 259 259 260 260 260 259 257 257 256 254 253 253 251 250 250 250 250 250 250 249 249 247 247 246 246 246 246 246 246 247 246 247 249 250 251 250 249 248 247
260 259 259 260 262 263 264 263 262 264 263 260 260 261 260 259 258 256 255 254 254 254 253 251 251 251 251 250 250 250 250 249 247 246 246 246 246 246 246 245 246 246 247 249 250 252 251 250 249
261 260 262 263 263 266 266 265 264 264 264 263 262 261 260 261 258 256 255 254 253 254 254 252 251 251 250 250 250 249 249 249 248 246 246 245 246 245 246 246 245 245 246 247 249 251 251 251 249
262 263 264 265 266 268 268 267 266 265 265 265 263 263 261 261 259 256 255 255 254 254 254 253 251 251 251 250 251 250 249 249 249 248 247 246 245 245 246 246 246 245 245 245 247 250 250 251 249
264 264 265 268 269 270 269 269 267 266 265 265 265 264 262 261 259 257 255 255 255 255 255 253 252 252 251 251 251 251 250 251 251 250 248 247 246 246 246 246 246 245 245 246 247 249 249 249 250
266 267 268 270 271 271 271 270 269 268 267 266 266 265 263 262 261 260 258 256 256 255 254 254 254 253 252 252 252 252 251 251 251 251 250 248 247 246 246 246 245 245 246 247 247 249 250 250 251
267 268 269 270 271 271 271 270 269 269 269 268 267 265 263 262 261 262 261 258 256 255 255 255 254 253 253 253 252 252 252 252 251 251 250 249 248 246 246 246 245 245 245 246 247 249 250 250 251
270 270 271 272 272 270 270 270 269 269 269 269 268 265 264 262 261 261 261 260 259 257 255 255 255 253 254 254 253 252 252 252 252 252 251 250 249 247 246 245 245 244 244 245 247 248 249 250 251
273 274 274 274 272 271 271 271 271 270 270 269 268 267 265 264 262 261 260 260 260 259 257 255 256 254 253 253 252 253 252 251 252 251 250 250 249 248 247 247 246 245 245 246 247 248 248 249 250
278 277 277 276 274 273 273 272 272 270 269 269 268 267 267 265 263 262 262 261 260 259 258 257 256 255 253 252 252 252 252 252 252 252 251 250 249 248 248 247 247 246 246 246 247 248 248 249 250
281 280 279 277 275 274 273 273 272 270 270 269 268 267 267 266 265 263 263 262 261 259 258 258 258 257 254 253 252 251 252 253 253 252 251 250 248 248 247 247 247 246 246 246 247 248 248 248 249
283 282 281 278 277 276 275 275 274 272 270 269 268 267 266 266 265 263 263 262 262 261 259 258 258 256 254 253 253 253 251 251 252 251 251 250 248 246 246 247 247 247 247 247 247 248 249 249 250
285 285 284 282 279 278 277 277 275 273 270 269 269 267 266 265 264 264 263 262 262 261 260 259 257 256 253 252 251 251 252 252 251 251 250 250 249 247 246 246 248 248 247 247 248 249 250 250 250
288 288 287 285 283 280 278 277 275 273 271 270 268 267 267 265 264 263 264 264 263 261 260 259 257 255 253 251 250 250 250 251 251 251 251 250 249 249 248 247 248 248 247 248 248 249 250 250 250
290 290 289 287 285 283 280 277 275 273 271 270 270 268 267 266 265 265 265 265 264 262 260 259 257 256 254 251 250 250 250 249 250 251 250 250 250 250 250 248 248 248 247 247 248 248 250 251 251
292 291 290 288 286 284 282 279 276 274 272 271 270 270 269 267 267 266 265 264 263 261 260 259 258 257 255 252 251 250 250 250 249 250 249 248 249 249 249 249 250 249 248 248 248 249 250 251 251
294 293 292 290 288 286 284 280 278 277 276 273 272 270 269 268 268 267 266 265 264 262 261 260 258 257 256 254 252 251 250 250 250 249 248 248 248 248 248 249 250 250 249 250 250 251 251 251 252
296 295 293 292 290 288 286 284 281 280 279 277 274 273 271 270 268 267 266 265 264 262 261 261 259 258 257 255 254 252 251 250 250 249 249 248 246 247 248 248 249 250 250 249 249 249 250 252 253
296 295 294 293 291 288 286 285 284 282 280 279 277 276 275 273 271 268 266 264 264 263 261 261 259 258 257 256 255 252 251 250 250 250 250 249 248 248 248 248 249 250 251 249 247 249 250 250 252
296 295 295 294 292 290 289 286 285 286 285 281 279 278 277 276 274 271 268 266 264 264 262 261 260 259 258 256 255 254 251 250 250 250 250 250 249 248 248 248 248 249 251 250 248 249 250 251 252
297 296 296 296 295 293 292 288 288 288 288 285 282 279 278 276 275 273 272 269 267 266 264 262 261 259 258 256 256 254 252 250 249 250 250 250 250 249 248 248 248 249 250 250 250 251 252 252 252
299 297 296 296 297 296 293 290 290 289 289 288 285 282 280 278 276 275 274 272 270 268 266 263 261 260 258 257 257 255 252 251 250 250 250 251 250 249 249 249 249 250 250 251 251 252 252 253 254
299 296 295 295 296 296 295 294 292 291 291 290 289 286 283 281 279 276 275 274 272 270 267 265 263 261 259 258 257 256 254 252 251 250 250 250 250 250 250 250 250 250 250 251 252 254 253 254 253
298 297 295 295 296 296 296 296 295 295 294 292 291 290 287 283 281 280 277 275 274 272 269 267 265 264 262 260 258 258 256 254 252 251 250 250 251 251 251 251 250 251 250 250 252 253 254 254 254
298 297 295 293 293 295 296 296 298 297 295 294 292 290 289 286 283 280 279 276 274 273 271 269 267 265 263 261 259 258 257 255 253 252 251 251 252 252 252 252 251 252 251 250 251 253 254 255 254
297 297 295 293 293 293 294 295 297 296 293 292 290 289 288 287 284 282 280 278 276 275 273 271 269 266 264 262 259 258 258 256 254 252 252 251 253 253 252 252 251 252 252 252 252 253 254 255 255
Height
5802 5803 5804 5805 5806 5807 5807 5809 5810 5812 5813 5814 5815 5816 5817 5819 5820 5823 5823 5823 5824 5825 5826 5828 5829 5830 5831 5833 5834 5835 5836 5837 5838 5839 5840 5841 5842 5843 5844 5845 5846 5847 5848 5849 5849 5850 5851 5851 5852
5798 5799 5800 5801 5801 5801 5803 5805 5807 5808 5809 5810 5811 5812 5813 5814 5815 5817 5817 5818 5820 5821 5822 5824 5825 5826 5827 5829 5830 5831 5832 5834 5835 5836 5837 5838 5839 5840 5842 5843 5843 5844 5845 5846 5847 5848 5849 5849 5850
5794 5795 5796 5796 5796 5798 5799 5801 5802 5804 5804 5805 5806 5807 5808 5810 5811 5811 5812 5813 5815 5817 5818 5819 5820 5821 5823 5824 5826 5827 5828 5830 5831 5832 5833 5835 5836 5837 5838 5839 5841 5841 5842 5843 5844 5845 5846 5847 5848
5789 5790 5791 5791 5791 5794 5794 5796 5797 5798 5799 5800 5801 5802 5803 5804 5805 5806 5807 5809 5810 5812 5813 5814 5816 5817 5818 5820 5821 5822 5824 5825 5827 5828 5829 5831 5832 5834 5835 5836 5837 5838 5839 5840 5841 5842 5843 5844 5845
5783 5785 5785 5785 5787 5788 5789 5791 5792 5792 5793 5794 5795 5796 5797 5798 5799 5801 5802 5803 5805 5806 5808 5809 5810 5812 5813 5814 5816 5817 5819 5820 5822 5823 5825 5826 5828 5829 5831 5832 5834 5835 5836 5837 5838 5839 5840 5841 5842
5778 5779 5780 5780 5782 5783 5784 5785 5785 5786 5787 5788 5789 5790 5790 5792 5793 5794 5796 5797 5799 5800 5802 5803 5804 5806 5807 5809 5810 5812 5813 5815 5816 5818 5820 5821 5823 5825 5826 5828 5829 5831 5832 5833 5834 5835 5837 5838 5839
5773 5774 5774 5775 5776 5777 5778 5778 5779 5779 5780 5781 5782 5783 5783 5784 5786 5787 5788 5790 5791 5793 5795 5797 5798 5799 5801 5802 5804 5806 5807 5809 5810 5812 5814 5816 5817 5819 5820 5822 5824 5826 5827 5829 5830 5831 5833 5834 5835
5767 5769 5769 5770 5770 5771 5772 5772 5772 5773 5773 5774 5774 5775 5776 5778 5779 5780 5781 5782 5784 5785 5787 5789 5791 5793 5794 5796 5797 5799 5801 5802 5804 5806 5807 5809 5811 5813 5814 5816 5819 5821 5822 5824 5825 5827 5828 5830 5831
5761 5763 5763 5764 5764 5765 5765 5765 5766 5765 5766 5767 5767 5767 5768 5770 5771 5772 5773 5774 5776 5777 5779 5781 5783 5785 5787 5788 5790 5792 5794 5796 5797 5799 5801 5803 5805 5807 5809 5811 5813 5815 5817 5818 5820 5822 5823 5825 5827
5755 5756 5758 5758 5757 5757 5757 5758 5758 5758 5759 5759 5760 5760 5760 5762 5763 5764 5765 5766 5768 5769 5771 5772 5774 5776 5778 5780 5782 5784 5786 5788 5790 5792 5794 5796 5798 5800 5802 5804 5807 5809 5811 5813 5814 5816 5818 5820 5822
5749 5750 5750 5750 5750 5750 5750 5750 5750 5751 5752 5752 5752 5752 5752 5753 5754 5755 5756 5757 5759 5760 5762 5763 5765 5767 5769 5772 5774 5776 5778 5780 5782 5784 5786 5788 5791 5793 5795 5798 5800 5802 5804 5806 5808 5811 5813 5815 5816
5742 5743 5742 5742 5742 5742 5742 5742 5742 5742 5743 5743 5743 5743 5743 5744 5745 5746 5747 5748 5749 5751 5753 5754 5756 5758 5760 5763 5765 5767 5769 5771 5773 5776 5778 5780 5783 5785 5788 5790 5793 5795 5797 5799 5802 5804 5806 5808 5810
5735 5735 5735 5734 5734 5734 5734 5734 5734 5734 5734 5733 5733 5734 5734 5734 5735 5736 5737 5738 5739 5741 5743 5745 5747 5748 5751 5753 5755 5757 5760 5762 5764 5766 5769 5771 5774 5777 5780 5782 5784 5787 5790 5792 5795 5797 5800 5802 5804
5728 5727 5727 5726 5725 5725 5725 5725 5725 5725 5724 5724 5724 5724 5725 5725 5726 5726 5727 5728 5730 5731 5733 5735 5737 5738 5740 5742 5744 5746 5749 5752 5754 5756 5759 5762 5765 5768 5771 5774 5776 5779 5782 5784 5787 5789 5792 5795 5797
5719 5719 5719 5718 5716 5716 5715 5715 5715 5715 5714 5714 5714 5715 5715 5715 5716 5716 5717 5718 5719 5721 5722 5724 5726 5728 5730 5732 5734 5736 5738 5741 5744 5747 5749 5752 5755 5758 5761 5764 5767 5770 5773 5776 5779 5781 5784 5787 5789
5711 5710 5709 5709 5707 5706 5706 5706 5705 5704 5704 5704 5704 5705 5705 5706 5706 5706 5707 5708 5709 5710 5711 5713 5715 5717 5719 5721 5724 5726 5729 5731 5734 5736 5739 5742 5745 5748 5751 5754 5758 5761 5764 5767 5770 5773 5776 5779 5781
5703 5701 5700 5699 5698 5696 5695 5695 5694 5693 5693 5694 5694 5694 5695 5695 5696 5696 5697 5697 5698 5699 5700 5702 5704 5705 5708 5710 5713 5716 5719 5721 5724 5726 5729 5732 5735 5738 5741 5744 5748 5751 5754 5757 5761 5764 5767 5770 5773
5695 5693 5691 5690 5688 5686 5685 5684 5683 5683 5682 5683 5684 5684 5684 5684 5685 5686 5686 5687 5687 5688 5690 5691 5693 5694 5697 5699 5702 5705 5708 5711 5714 5716 5719 5722 5724 5727 5730 5734 5737 5740 5744 5747 5751 5755 5758 5761 5764
5687 5684 5682 5680 5678 5676 5675 5674 5673 5672 5673 5673 5673 5672 5673 5673 5674 5675 5675 5675 5676 5678 5679 5681 5682 5684 5686 5688 5691 5694 5697 5700 5703 5705 5708 5711 5714 5717 5720 5723 5726 5729 5733 5737 5741 5744 5748 5751 5754
5678 5676 5673 5671 5668 5666 5665 5665 5663 5663 5662 5662 5662 5661 5662 5663 5663 5663 5664 5665 5665 5667 5668 5669 5671 5673 5675 5677 5680 5683 5686 5689 5692 5694 5697 5700 5703 5706 5709 5713 5716 5719 5722 5726 5730 5734 5738 5741 5744
5670 5668 5664 5661 5659 5657 5655 5656 5655 5654 5653 5652 5652 5651 5651 5652 5652 5652 5652 5653 5654 5655 5656 5658 5659 5661 5663 5666 5668 5671 5674 5677 5680 5683 5686 5689 5692 5695 5698 5702 5705 5708 5711 5715 5719 5723 5727 5730 5733
5663 5660 5656 5652 5650 5648 5647 5645 5647 5645 5644 5642 5642 5641 5640 5640 5640 5640 5641 5642 5643 5644 5645 5646 5648 5649 5651 5653 5656 5658 5662 5665 5668 5671 5674 5677 5680 5683 5687 5690 5694 5697 5700 5704 5707 5711 5715 5719 5722
5655 5651 5648 5644 5641 5639 5638 5635 5637 5636 5635 5633 5632 5631 5630 5629 5629 5629 5630 5630 5631 5631 5633 5634 5635 5637 5638 5641 5643 5646 5649 5652 5655 5658 5662 5665 5668 5671 5675 5678 5682 5685 5688 5692 5696 5699 5703 5707 5710
5646 5643 5640 5636 5632 5630 5630 5626 5626 5626 5625 5623 5622 5621 5619 5618 5618 5618 5618 5618 5619 5619 5620 5621 5622 5624 5625 5628 5630 5632 5635 5639 5642 5645 5649 5652 5655 5658 5662 5666 5670 5673 5676 5680 5683 5687 5690 5694 5697
5638 5635 5631 5626 5623 5621 5620 5617 5618 5617 5615 5613 5612 5610 5609 5608 5607 5606 5606 5606 5607 5607 5607 5608 5609 5611 5612 5614 5616 5619 5621 5625 5628 5631 5635 5639 5642 5645 5649 5652 5656 5660 5663 5666 5670 5673 5677 5680 5684
5630 5627 5623 5619 5615 5612 5610 5608 5609 5608 5605 5603 5601 5600 5598 5597 5596 5595 5594 5594 5594 5594 5595 5595 5596 5597 5599 5600 5602 5605 5607 5610 5614 5618 5621 5624 5628 5632 5635 5639 5642 5646 5650 5653 5656 5659 5663 5666 5669
5621 5618 5615 5611 5606 5603 5601 5600 5599 5597 5595 5593 5591 5590 5588 5586 5585 5583 5582 5582 5581 5582 5582 5582 5583 5584 5585 5586 5588 5590 5593 5596 5599 5603 5607 5610 5614 5617 5621 5624 5628 5632 5635 5639 5643 5646 5649 5652 5655
5614 5610 5606 5602 5597 5593 5591 5590 5590 5588 5585 5583 5581 5578 5577 5575 5573 5572 5571 5570 5569 5569 5569 5569 5569 5570 5571 5572 5574 5576 5578 5581 5584 5588 5592 5596 5599 5603 5606 5610 5614 5617 5621 5624 5628 5631 5634 5637 5640
5605 5602 5597 5593 5589 5585 5581 5583 5581 5578 5575 5572 5569 5567 5565 5564 5562 5561 5559 5558 5557 5557 5556 5556 5557 5557 5558 5559 5560 5562 5564 5567 5570 5573 5577 5581 5585 5588 5592 5596 5599 5602 5606 5609 5613 5616 5619 5622 5625
5595 5592 5588 5585 5581 5576 5572 5574 5572 5569 5565 5562 5559 5557 5555 5553 5551 5549 5548 5546 5545 5545 5544 5544 5544 5544 5545 5546 5547 5549 5551 5553 5555 5559 5562 5566 5569 5573 5576 5580 5584 5587 5590 5594 5597 5601 5604 5607 5610